(94260) = 2001 CJ40

Discovered at Socorro on 2001-02-13 by LINEAR.

Orbit

Orbit type: Main Belt

Note: WebGL enabled browser required.

epoch2024-03-31.0
epoch JD2460400.5
perihelion date2023-03-31.19396
perihelion JD2460034.69396
argument of perihelion (°)115.79573
ascending node (°)7.61221
inclination (°)10.38851
eccentricity0.0561075
perihelion distance (AU)2.9739778
Tisserand w.r.t. Jupiter3.2
ΔV w.r.t. Earth (km/sec)11.2
semimajor axis (AU)3.1507589
mean anomaly (°)64.46618
mean daily motion (°/day)0.17623050
aphelion distance (AU)3.328
period (years)5.59
P-vector [x]-0.54864139
P-vector [y]0.68788594
P-vector [z]0.47519002
Q-vector [x]-0.83571648
Q-vector [y]-0.46746192
Q-vector [z]-0.28819665
absolute magnitude14.21
phase slope0.15
uncertainty0
referenceMPEC 2024-F74
observations used1386
oppositions20
arc length (days)11117
first opposition used1993
last opposition used2024
residual rms (arc-secs)0.68
perturbers coarse indicatorM-v
perturbers precise indicator003Ek
first observation date used1993-10-13.0
last observation date used2024-03-21.0
computer nameMPCLINUX
JD of orbit computation2456847.681107
perihelion JD uncertainty (days)3.4575E-04
argument of perihelion uncertainty (°)6.4260E-05
ascending node uncertainty (°)2.4401E-05
inclination uncertainty (°)6.0656E-06
eccentricity uncertainty 3.9839E-08
perihelion distance uncertainty (AU)1.2111E-07
Minimum Orbit Intersection Distances (in AU)
for orbit epoch: 2460400.5, reference: E2024-G51
Mercury2.6355
Venus2.2617
Earth2.00692
Mars1.33709
Jupiter1.70829
Saturn6.10815
Uranus15.4156
Neptune26.6402

Observations

1399 total observations over interval: 1993 10 13.14576 – 2024 03 21.460950
These data are available for download (format description).

Date (UT) J2000 RA J2000 Dec Magn Location Ref
1993 10 13.14576 01 19 45.63 +12 14 37.8 18.1 V 691 – Steward Observatory, Kitt Peak-Spacewatch MPS 28000
1993 10 13.18948 01 19 43.35 +12 14 32.6   691 – Steward Observatory, Kitt Peak-Spacewatch MPS 28000
1993 10 13.22953 01 19 41.27 +12 14 27.7   691 – Steward Observatory, Kitt Peak-Spacewatch MPS 28000
1993 11 06.26907 01 00 45.49 +11 22 23.2 18.7 V 691 – Steward Observatory, Kitt Peak-Spacewatch MPS 28000
1993 11 06.31414 01 00 43.67 +11 22 18.2   691 – Steward Observatory, Kitt Peak-Spacewatch MPS 28000
1999 10 14.26543 03 51 55.78 +29 44 03.0 19.7   704 – Lincoln Laboratory ETS, New Mexico MPS 28000
1999 10 14.28097 03 51 55.36 +29 44 05.5 18.9   704 – Lincoln Laboratory ETS, New Mexico MPS 28000
1999 10 14.29641 03 51 54.91 +29 44 08.7 18.7   704 – Lincoln Laboratory ETS, New Mexico MPS 28000
1999 10 14.31179 03 51 54.48 +29 44 12.3 18.9   704 – Lincoln Laboratory ETS, New Mexico MPS 28000
1999 12 07.17583 03 07 32.77 +29 44 56.8 18.3 R 703 – Catalina Sky Survey MPS 28000
1999 12 07.18815 03 07 32.22 +29 44 52.9 18.5 R 703 – Catalina Sky Survey MPS 28000
1999 12 07.20041 03 07 31.59 +29 44 51.8 18.5 R 703 – Catalina Sky Survey MPS 28000
1999 12 07.21266 03 07 31.06 +29 44 50.2 18.5 R 703 – Catalina Sky Survey MPS 28000
2001 02 03.31927 10 18 28.04 +22 04 12.6 18.3   704 – Lincoln Laboratory ETS, New Mexico MPS 26966
2001 02 03.33427 10 18 27.32 +22 04 15.1 18.7   704 – Lincoln Laboratory ETS, New Mexico MPS 26966
2001 02 03.34911 10 18 26.58 +22 04 18.5 18.9   704 – Lincoln Laboratory ETS, New Mexico MPS 26966
2001 02 03.36396 10 18 25.77 +22 04 20.7 18.4   704 – Lincoln Laboratory ETS, New Mexico MPS 26966
2001 02 03.37881 10 18 25.05 +22 04 24.0 18.6   704 – Lincoln Laboratory ETS, New Mexico MPS 26966
2001 02 13.31517 10 09 54.32 +22 33 09.2 18.9   704 – Lincoln Laboratory ETS, New Mexico MPS 26966
2001 02 13.32896 10 09 53.56 +22 33 10.0 18.7   704 – Lincoln Laboratory ETS, New Mexico MPS 26966
2001 02 13.35656 10 09 52.01 +22 33 14.2 18.7   704 – Lincoln Laboratory ETS, New Mexico MPS 26966
2001 02 16.29513 10 07 13.52 +22 40 08.5 17.7   704 – Lincoln Laboratory ETS, New Mexico MPS 26966
2001 02 16.30943 10 07 12.79 +22 40 11.5 18.9   704 – Lincoln Laboratory ETS, New Mexico MPS 26966
2001 02 16.32349 10 07 11.95 +22 40 12.7 18.1   704 – Lincoln Laboratory ETS, New Mexico MPS 26966
2001 02 16.33754 10 07 11.20 +22 40 14.6 18.5   704 – Lincoln Laboratory ETS, New Mexico MPS 26966
2001 02 16.35160 10 07 10.38 +22 40 16.7 18.6   704 – Lincoln Laboratory ETS, New Mexico MPS 26966
2001 03 04.25817 09 53 19.87 +22 59 04.5 18.3   704 – Lincoln Laboratory ETS, New Mexico MPS 28000
2001 03 04.27205 09 53 19.21 +22 59 04.8 18.4   704 – Lincoln Laboratory ETS, New Mexico MPS 28000
2001 03 04.28591 09 53 18.53 +22 59 04.9 18.6   704 – Lincoln Laboratory ETS, New Mexico MPS 28000
2001 03 04.29976 09 53 17.85 +22 59 05.1 18.9   704 – Lincoln Laboratory ETS, New Mexico MPS 28000
2001 03 14.15866 09 46 14.50 +22 52 48.1 19.0 R 699 – Lowell Observatory-LONEOS MPS 28000
2001 03 14.19143 09 46 13.14 +22 52 44.1   699 – Lowell Observatory-LONEOS MPS 28000
2001 03 14.22440 09 46 11.90 +22 52 42.5   699 – Lowell Observatory-LONEOS MPS 28000
2001 03 14.25722 09 46 10.65 +22 52 40.1   699 – Lowell Observatory-LONEOS MPS 28000
2001 03 18.24949 09 43 51.05 +22 46 08.7 19.9   608 – Haleakala-AMOS MPS 28000
2001 03 18.26041 09 43 50.66 +22 46 07.1 19.3   608 – Haleakala-AMOS MPS 28000
2001 03 18.27136 09 43 50.29 +22 46 06.3 19.7   608 – Haleakala-AMOS MPS 28000
2001 03 19.18721 09 43 21.17 +22 44 17.7 18.6   704 – Lincoln Laboratory ETS, New Mexico MPS 28000
2001 03 19.22560 09 43 19.76 +22 44 14.3 18.8   704 – Lincoln Laboratory ETS, New Mexico MPS 28000
2001 03 19.23839 09 43 19.34 +22 44 12.0 18.7   704 – Lincoln Laboratory ETS, New Mexico MPS 28000
2001 03 26.18507 09 40 16.12 +22 26 54.8 18.8   704 – Lincoln Laboratory ETS, New Mexico MPS 28000
2001 03 26.20941 09 40 15.57 +22 26 50.5 18.8   704 – Lincoln Laboratory ETS, New Mexico MPS 28000
2001 03 26.22160 09 40 15.32 +22 26 48.1 19.2   704 – Lincoln Laboratory ETS, New Mexico MPS 28000
2001 03 26.23379 09 40 15.05 +22 26 46.7 19.3   704 – Lincoln Laboratory ETS, New Mexico MPS 28000
2002 05 09.27204 14 38 50.23 -25 12 22.9 18.8   704 – Lincoln Laboratory ETS, New Mexico MPS 54604
2002 05 09.28440 14 38 49.46 -25 12 21.7 19.1   704 – Lincoln Laboratory ETS, New Mexico MPS 54604
2002 05 09.29701 14 38 48.90 -25 12 19.2 19.0   704 – Lincoln Laboratory ETS, New Mexico MPS 54604
2002 05 09.30945 14 38 48.20 -25 12 17.5 19.1   704 – Lincoln Laboratory ETS, New Mexico MPS 54604
2002 05 09.32188 14 38 47.60 -25 12 15.5 19.3   704 – Lincoln Laboratory ETS, New Mexico MPS 54604
2002 05 10.23155 14 38 00.23 -25 10 31.4 18.3   644 – Palomar Mountain/NEAT MPS 54604
2002 05 10.25368 14 37 59.06 -25 10 29.5 18.3   644 – Palomar Mountain/NEAT MPS 54604
2002 05 10.27467 14 37 57.93 -25 10 26.7 18.1   644 – Palomar Mountain/NEAT MPS 54604
2002 05 11.23369 14 37 08.24 -25 08 33.1 18.7   704 – Lincoln Laboratory ETS, New Mexico MPS 54604
2002 05 11.24851 14 37 07.49 -25 08 32.0 19.4   704 – Lincoln Laboratory ETS, New Mexico MPS 54604
2002 05 11.26464 14 37 06.59 -25 08 29.6 18.9   704 – Lincoln Laboratory ETS, New Mexico MPS 54604
2002 05 17.26146 14 32 05.22 -24 55 15.2 19.1   704 – Lincoln Laboratory ETS, New Mexico MPS 54604
2002 05 17.27647 14 32 04.54 -24 55 13.4 18.9   704 – Lincoln Laboratory ETS, New Mexico MPS 54604
2002 05 17.29168 14 32 03.78 -24 55 10.2 18.6   704 – Lincoln Laboratory ETS, New Mexico MPS 54604
2002 05 17.37050 14 31 59.92 -24 54 59.4 19.0   644 – Palomar Mountain/NEAT MPS 54604
2002 05 17.38329 14 31 59.31 -24 54 57.3 18.8   644 – Palomar Mountain/NEAT MPS 54604
2002 05 17.39608 14 31 58.67 -24 54 55.6 19.1   644 – Palomar Mountain/NEAT MPS 54604
2004 08 26.35758 00 54 49.72 +04 12 57.1 18.1 R 703 – Catalina Sky Survey MPS 112128
2004 08 26.36831 00 54 49.53 +04 12 57.2 18.9 R 703 – Catalina Sky Survey MPS 112128
2004 08 26.37907 00 54 49.22 +04 12 57.3 18.7 R 703 – Catalina Sky Survey MPS 112128
2004 08 26.38986 00 54 48.91 +04 12 57.0 18.2 R 703 – Catalina Sky Survey MPS 112128
2004 09 09.23806 00 47 37.91 +04 02 17.1 19.5   704 – Lincoln Laboratory ETS, New Mexico MPS 112612
2004 09 09.24946 00 47 37.39 +04 02 15.6 19.5   704 – Lincoln Laboratory ETS, New Mexico MPS 112612
2004 09 09.26085 00 47 36.93 +04 02 15.0 19.4   704 – Lincoln Laboratory ETS, New Mexico MPS 112612
2004 09 09.27226 00 47 36.46 +04 02 14.8 19.6   704 – Lincoln Laboratory ETS, New Mexico MPS 112612
2004 09 09.28366 00 47 36.04 +04 02 13.9 19.8   704 – Lincoln Laboratory ETS, New Mexico MPS 112612
2004 09 09.31329 00 47 34.92 +04 02 11.7 20.7 R H07 – 7300 Observatory, Cloudcroft MPS 112699
2004 09 09.35712 00 47 33.14 +04 02 07.0 18.9 R 699 – Lowell Observatory-LONEOS MPS 112699
2004 09 09.36075 00 47 33.01 +04 02 08.9 21.2 R H07 – 7300 Observatory, Cloudcroft MPS 112699
2004 09 09.37008 00 47 32.60 +04 02 05.3   699 – Lowell Observatory-LONEOS MPS 112699
2004 09 09.38305 00 47 32.11 +04 02 05.0   699 – Lowell Observatory-LONEOS MPS 112699
2004 09 09.39598 00 47 31.52 +04 02 03.8   699 – Lowell Observatory-LONEOS MPS 112699
2004 09 13.36224 00 44 52.20 +03 56 01.9 18.3 R 699 – Lowell Observatory-LONEOS MPS 121052
2004 09 13.37686 00 44 51.63 +03 56 01.1   699 – Lowell Observatory-LONEOS MPS 121052
2004 09 13.39146 00 44 50.92 +03 55 59.1   699 – Lowell Observatory-LONEOS MPS 121052
2004 09 13.40605 00 44 50.35 +03 55 57.7   699 – Lowell Observatory-LONEOS MPS 121052
2004 09 17.27507 00 42 02.88 +03 49 04.2 18.9   704 – Lincoln Laboratory ETS, New Mexico MPS 114228
2004 09 17.28674 00 42 02.35 +03 49 02.1 19.4   704 – Lincoln Laboratory ETS, New Mexico MPS 114228
2004 09 17.29842 00 42 01.82 +03 49 01.3 19.6   704 – Lincoln Laboratory ETS, New Mexico MPS 114228
2004 09 17.32179 00 42 00.74 +03 48 59.5 19.6   704 – Lincoln Laboratory ETS, New Mexico MPS 114228
2004 09 22.28664 00 38 11.90 +03 38 56.9 19.0   704 – Lincoln Laboratory ETS, New Mexico MPS 114228
2004 09 22.29881 00 38 11.33 +03 38 54.9 19.0   704 – Lincoln Laboratory ETS, New Mexico MPS 114228
